GIA824 VTSP-WIII

Flight info

Callsign GIA824
Flight time 3h 1m
Altitude 39000
Route REBED1A REBED B579 VPL Y503 RINBA Y507 MAKNA Y511 TOPOR A464 ARAMA P501 POSOG B469 BIDAK
Aircraft A339/H-SADE1E2E3GHIJ3J5M1P2RWXY/LB2D1

Departure

Time 2026-05-05 18:16
Airport Phuket International Airport (VTSP)

Arrival

Time 2026-05-05 21:18
Airport Soekarno-Hatta International Airport (WIII)
Time Latitude Longitude Altitude Speed Heading
2026-05-05 17:48 8.10962 98.30581 40 ft 0 kts 173°
2026-05-05 18:07 8.10965 98.30580 40 ft 1 kts 173°
2026-05-05 18:07 8.10972 98.30579 40 ft 1 kts 173°
2026-05-05 18:07 8.10980 98.30579 40 ft 1 kts 173°
2026-05-05 18:07 8.10987 98.30578 40 ft 1 kts 173°
2026-05-05 18:08 8.10994 98.30577 40 ft 1 kts 173°
2026-05-05 18:08 8.11001 98.30576 40 ft 1 kts 173°
2026-05-05 18:08 8.11008 98.30575 38 ft 1 kts 173°
2026-05-05 18:08 8.11016 98.30573 37 ft 1 kts 186°
2026-05-05 18:09 8.11023 98.30573 37 ft 1 kts 199°
2026-05-05 18:09 8.11031 98.30575 37 ft 1 kts 212°
2026-05-05 18:09 8.11037 98.30578 36 ft 1 kts 225°
2026-05-05 18:09 8.11043 98.30583 36 ft 1 kts 239°
2026-05-05 18:10 8.11048 98.30589 37 ft 1 kts 251°
2026-05-05 18:10 8.11050 98.30596 39 ft 1 kts 256°
2026-05-05 18:10 8.11052 98.30603 38 ft 1 kts 262°
2026-05-05 18:10 8.11053 98.30607 39 ft 0 kts 265°
2026-05-05 18:12 8.11052 98.30591 38 ft 4 kts 265°
2026-05-05 18:13 8.11048 98.30549 39 ft 8 kts 265°
2026-05-05 18:13 8.11043 98.30485 38 ft 11 kts 265°
2026-05-05 18:13 8.11039 98.30403 36 ft 12 kts 274°
2026-05-05 18:13 8.11085 98.30351 35 ft 0 kts 338°
2026-05-05 18:14 8.11087 98.30351 35 ft 1 kts 340°
2026-05-05 18:14 8.11108 98.30349 35 ft 5 kts 352°
2026-05-05 18:15 8.11159 98.30348 35 ft 9 kts
2026-05-05 18:15 8.11196 98.30400 36 ft 11 kts 74°
2026-05-05 18:15 8.11205 98.30485 37 ft 14 kts 84°
2026-05-05 18:15 8.11228 98.30716 41 ft 70 kts 84°
2026-05-05 18:16 8.11299 98.31477 62 ft 144 kts 85°
2026-05-05 18:16 8.11404 98.32665 196 ft 189 kts 85°
2026-05-05 18:16 8.11520 98.33993 952 ft 189 kts 84°
2026-05-05 18:16 8.11625 98.35324 1808 ft 190 kts 84°
2026-05-05 18:17 8.11743 98.36641 2632 ft 189 kts 83°
2026-05-05 18:17 8.11889 98.38016 3117 ft 206 kts 83°
2026-05-05 18:17 8.12053 98.39523 3473 ft 226 kts 84°
2026-05-05 18:17 8.12226 98.41169 3771 ft 247 kts 84°
2026-05-05 18:18 8.12403 98.42930 4136 ft 260 kts 84°
2026-05-05 18:18 8.12582 98.44756 4769 ft 263 kts 84°
2026-05-05 18:18 8.12759 98.46605 5383 ft 265 kts 85°
2026-05-05 18:18 8.12935 98.48461 6046 ft 266 kts 85°
2026-05-05 18:19 8.13111 98.50339 6633 ft 269 kts 85°
2026-05-05 18:19 8.13285 98.52207 7210 ft 271 kts 85°
2026-05-05 18:19 8.13462 98.54107 7810 ft 273 kts 85°
2026-05-05 18:19 8.13641 98.56026 8387 ft 276 kts 85°
2026-05-05 18:20 8.13589 98.57961 8938 ft 278 kts 103°
2026-05-05 18:20 8.12754 98.59712 9524 ft 281 kts 128°
2026-05-05 18:20 8.11227 98.60957 10082 ft 288 kts 152°
2026-05-05 18:20 8.09241 98.61493 10306 ft 308 kts 174°
2026-05-05 18:21 8.07038 98.61495 10587 ft 321 kts 179°
2026-05-05 18:21 8.04793 98.61424 11110 ft 323 kts 179°
2026-05-05 18:21 8.02561 98.61398 11636 ft 326 kts 177°
2026-05-05 18:21 8.00290 98.61435 12159 ft 328 kts 176°
2026-05-05 18:22 7.97998 98.61516 12698 ft 331 kts 175°
2026-05-05 18:22 7.95684 98.61617 13211 ft 334 kts 175°
2026-05-05 18:22 7.93355 98.61724 13723 ft 337 kts 175°
2026-05-05 18:22 7.91004 98.61830 14142 ft 341 kts 175°
2026-05-05 18:23 7.88581 98.61935 14267 ft 355 kts 175°
2026-05-05 18:23 7.86063 98.62038 14465 ft 366 kts 175°
2026-05-05 18:23 7.83510 98.62136 14878 ft 368 kts 176°
2026-05-05 18:23 7.80933 98.62231 15289 ft 371 kts 176°
2026-05-05 18:24 7.78344 98.62368 15708 ft 373 kts 172°
2026-05-05 18:24 7.75777 98.62785 16119 ft 374 kts 165°
2026-05-05 18:24 7.73269 98.63518 16502 ft 376 kts 158°
2026-05-05 18:24 7.70855 98.64555 16893 ft 378 kts 152°
2026-05-05 18:25 7.68601 98.65856 17271 ft 379 kts 145°
2026-05-05 18:25 7.67144 98.66899 17539 ft 381 kts 140°
2026-05-05 18:25 7.64448 98.69184 18039 ft 384 kts 137°
2026-05-05 18:25 7.62416 98.70944 18391 ft 386 kts 138°
2026-05-05 18:26 7.60361 98.72696 18750 ft 388 kts 139°
2026-05-05 18:26 7.58276 98.74443 19106 ft 390 kts 139°
2026-05-05 18:26 7.56179 98.76177 19447 ft 392 kts 139°
2026-05-05 18:26 7.54056 98.77918 19806 ft 394 kts 140°
2026-05-05 18:27 7.51921 98.79662 20152 ft 396 kts 140°
2026-05-05 18:27 7.49774 98.81413 20516 ft 398 kts 140°
2026-05-05 18:27 7.47641 98.83154 20865 ft 400 kts 140°
2026-05-05 18:27 7.45470 98.84929 21216 ft 402 kts 140°
2026-05-05 18:28 7.41093 98.88508 21908 ft 407 kts 140°
2026-05-05 18:28 7.38887 98.90314 22252 ft 410 kts 140°
2026-05-05 18:28 7.36664 98.92134 22613 ft 412 kts 140°
2026-05-05 18:29 7.34431 98.93963 22969 ft 415 kts 140°
2026-05-05 18:29 7.32182 98.95804 23313 ft 417 kts 140°
2026-05-05 18:29 7.29947 98.97635 23610 ft 420 kts 140°
2026-05-05 18:29 7.27678 98.99493 23934 ft 421 kts 140°
2026-05-05 18:30 7.25398 99.01360 24226 ft 423 kts 140°
2026-05-05 18:30 7.23105 99.03236 24533 ft 425 kts 140°
2026-05-05 18:30 7.20806 99.05118 24841 ft 427 kts 140°
2026-05-05 18:30 7.18491 99.07012 25123 ft 429 kts 140°
2026-05-05 18:31 7.16167 99.08915 25435 ft 431 kts 140°
2026-05-05 18:31 7.13829 99.10828 25735 ft 433 kts 140°
2026-05-05 18:31 7.11486 99.12747 26038 ft 435 kts 140°
2026-05-05 18:31 7.09129 99.14677 26329 ft 437 kts 140°
2026-05-05 18:32 7.06760 99.16616 26623 ft 439 kts 140°
2026-05-05 18:32 7.04383 99.18561 26894 ft 441 kts 140°
2026-05-05 18:32 7.01994 99.20516 27174 ft 443 kts 140°
2026-05-05 18:32 6.99627 99.22453 27453 ft 445 kts 140°
2026-05-05 18:33 6.97217 99.24424 27733 ft 447 kts 140°
2026-05-05 18:33 6.94800 99.26401 28016 ft 449 kts 140°
2026-05-05 18:33 6.92371 99.28388 28283 ft 451 kts 140°
2026-05-05 18:33 6.89930 99.30384 28562 ft 453 kts 140°
2026-05-05 18:34 6.87474 99.32391 28822 ft 455 kts 140°
2026-05-05 18:34 6.85013 99.34403 29092 ft 457 kts 140°
2026-05-05 18:34 6.82539 99.36425 29379 ft 459 kts 140°
2026-05-05 18:34 6.80058 99.38451 29648 ft 460 kts 140°
2026-05-05 18:35 6.77565 99.40488 29915 ft 462 kts 140°
2026-05-05 18:35 6.75055 99.42539 30148 ft 465 kts 140°
2026-05-05 18:35 6.72530 99.44601 30387 ft 467 kts 140°
2026-05-05 18:35 6.70037 99.46637 30626 ft 468 kts 140°
2026-05-05 18:36 6.67501 99.48707 30855 ft 471 kts 140°
2026-05-05 18:36 6.64946 99.50793 31111 ft 473 kts 140°
2026-05-05 18:36 6.62381 99.52887 31351 ft 475 kts 140°
2026-05-05 18:36 6.59814 99.54983 31593 ft 477 kts 140°
2026-05-05 18:37 6.58103 99.56379 31751 ft 478 kts 140°
2026-05-05 18:37 6.55514 99.58492 31973 ft 480 kts 140°
2026-05-05 18:37 6.52912 99.60616 32200 ft 482 kts 140°
2026-05-05 18:37 6.50304 99.62744 32415 ft 484 kts 140°
2026-05-05 18:38 6.47680 99.64885 32581 ft 486 kts 140°
2026-05-05 18:38 6.45044 99.67026 32747 ft 487 kts 140°
2026-05-05 18:38 6.42377 99.69143 32895 ft 489 kts 141°
2026-05-05 18:38 6.39690 99.71248 33048 ft 490 kts 141°
2026-05-05 18:39 6.36995 99.73350 33163 ft 491 kts 141°
2026-05-05 18:39 6.34409 99.75526 33255 ft 491 kts 136°
2026-05-05 18:39 6.31964 99.77934 33372 ft 492 kts 133°
2026-05-05 18:39 6.29580 99.80390 33511 ft 491 kts 133°
2026-05-05 18:40 6.27206 99.82861 33646 ft 491 kts 133°
2026-05-05 18:40 6.24827 99.85333 33780 ft 491 kts 133°
2026-05-05 18:40 6.22444 99.87796 33918 ft 491 kts 133°
2026-05-05 18:40 6.20061 99.90247 34051 ft 490 kts 133°
2026-05-05 18:41 6.17676 99.92691 34199 ft 489 kts 133°
2026-05-05 18:41 6.15291 99.95131 34336 ft 488 kts 133°
2026-05-05 18:41 6.12907 99.97567 34468 ft 488 kts 133°
2026-05-05 18:41 6.10530 99.99996 34612 ft 487 kts 134°
2026-05-05 18:42 6.08148 100.02430 34741 ft 487 kts 134°
2026-05-05 18:42 6.05811 100.04819 34871 ft 486 kts 134°
2026-05-05 18:42 6.03438 100.07243 35022 ft 485 kts 134°
2026-05-05 18:42 6.01072 100.09661 35161 ft 485 kts 134°
2026-05-05 18:43 5.98675 100.12110 35305 ft 484 kts 134°
2026-05-05 18:43 5.96343 100.14493 35446 ft 484 kts 134°
2026-05-05 18:43 5.93985 100.16902 35606 ft 483 kts 134°
2026-05-05 18:43 5.91628 100.19310 35762 ft 483 kts 134°
2026-05-05 18:44 5.89273 100.21716 35923 ft 482 kts 134°
2026-05-05 18:44 5.86922 100.24118 36088 ft 482 kts 134°
2026-05-05 18:44 5.84574 100.26516 36249 ft 481 kts 134°
2026-05-05 18:44 5.82231 100.28908 36416 ft 481 kts 134°
2026-05-05 18:45 5.79882 100.31306 36577 ft 480 kts 134°
2026-05-05 18:45 5.77543 100.33694 36740 ft 480 kts 134°
2026-05-05 18:45 5.75198 100.36087 36899 ft 480 kts 134°
2026-05-05 18:45 5.72885 100.38448 37078 ft 479 kts 134°
2026-05-05 18:46 5.70542 100.40838 37242 ft 479 kts 134°
2026-05-05 18:46 5.68203 100.43225 37404 ft 478 kts 134°
2026-05-05 18:46 5.65872 100.45602 37565 ft 478 kts 134°
2026-05-05 18:46 5.63536 100.47984 37715 ft 478 kts 134°
2026-05-05 18:47 5.61207 100.50359 37864 ft 477 kts 134°
2026-05-05 18:47 5.58877 100.52734 38011 ft 477 kts 134°
2026-05-05 18:47 5.56547 100.55108 38158 ft 477 kts 134°
2026-05-05 18:47 5.54213 100.57487 38297 ft 477 kts 134°
2026-05-05 18:48 5.51885 100.59860 38446 ft 477 kts 134°
2026-05-05 18:48 5.49560 100.62230 38587 ft 476 kts 134°
2026-05-05 18:48 5.47234 100.64600 38705 ft 476 kts 134°
2026-05-05 18:48 5.44912 100.66966 38831 ft 476 kts 134°
2026-05-05 18:49 5.40201 100.71614 38874 ft 475 kts 140°
2026-05-05 18:49 5.34510 100.74957 38873 ft 476 kts 159°
2026-05-05 18:50 5.28090 100.76429 38876 ft 477 kts 172°
2026-05-05 18:50 5.21523 100.77289 38868 ft 476 kts 171°
2026-05-05 18:51 5.14972 100.78291 38872 ft 476 kts 170°
2026-05-05 18:51 5.08436 100.79353 38866 ft 475 kts 169°
2026-05-05 18:52 5.01899 100.80417 38867 ft 475 kts 169°
2026-05-05 18:52 4.95419 100.81465 38864 ft 474 kts 169°
2026-05-05 18:53 4.88903 100.82517 38859 ft 474 kts 169°
2026-05-05 18:53 4.82392 100.83562 38859 ft 474 kts 169°
2026-05-05 18:54 4.75876 100.84602 38857 ft 473 kts 169°
2026-05-05 18:54 4.69366 100.85639 38852 ft 473 kts 169°
2026-05-05 18:55 4.62873 100.86669 38854 ft 472 kts 169°
2026-05-05 18:55 4.56376 100.87700 38854 ft 472 kts 169°
2026-05-05 18:56 4.49901 100.88764 38851 ft 471 kts 166°
2026-05-05 18:56 4.43653 100.90595 38852 ft 470 kts 156°
2026-05-05 18:57 4.37734 100.93360 38853 ft 468 kts 151°
2026-05-05 18:57 4.31927 100.96317 38849 ft 468 kts 152°
2026-05-05 18:58 4.26074 100.99204 38853 ft 468 kts 152°
2026-05-05 18:58 4.20201 101.02044 38852 ft 468 kts 153°
2026-05-05 18:59 4.14334 101.04869 38854 ft 468 kts 153°
2026-05-05 18:59 4.08492 101.07685 38850 ft 468 kts 153°
2026-05-05 19:00 4.02608 101.10532 38854 ft 469 kts 153°
2026-05-05 19:00 3.96728 101.13383 38852 ft 469 kts 153°
2026-05-05 19:01 3.90844 101.16238 38850 ft 469 kts 153°
2026-05-05 19:01 3.84962 101.19094 38854 ft 470 kts 153°
2026-05-05 19:02 3.79117 101.21932 38853 ft 470 kts 153°
2026-05-05 19:02 3.73245 101.24830 38853 ft 470 kts 152°
2026-05-05 19:03 3.67452 101.27851 38854 ft 470 kts 151°
2026-05-05 19:03 3.61646 101.30900 38851 ft 470 kts 151°
2026-05-05 19:04 3.55868 101.33918 38848 ft 470 kts 152°
2026-05-05 19:04 3.50059 101.36942 38852 ft 470 kts 152°
2026-05-05 19:05 3.44284 101.39947 38853 ft 470 kts 152°
2026-05-05 19:05 3.38474 101.42971 38850 ft 470 kts 152°
2026-05-05 19:06 3.32678 101.45986 38857 ft 469 kts 152°
2026-05-05 19:06 3.26799 101.48863 38851 ft 470 kts 154°
2026-05-05 19:07 3.20841 101.51571 38854 ft 470 kts 155°
2026-05-05 19:07 3.14883 101.54278 38852 ft 470 kts 155°
2026-05-05 19:08 3.08957 101.56995 38854 ft 471 kts 154°
2026-05-05 19:08 3.02995 101.59738 38852 ft 471 kts 154°
2026-05-05 19:09 2.97037 101.62482 38851 ft 472 kts 154°
2026-05-05 19:09 2.91071 101.65230 38829 ft 472 kts 154°
2026-05-05 19:10 2.85099 101.67981 38834 ft 472 kts 154°
2026-05-05 19:10 2.79126 101.70734 38838 ft 472 kts 154°
2026-05-05 19:11 2.73168 101.73480 38835 ft 472 kts 154°
2026-05-05 19:11 2.67232 101.76285 38836 ft 471 kts 153°
2026-05-05 19:12 2.61344 101.79167 38834 ft 471 kts 153°
2026-05-05 19:12 2.55642 101.82369 38831 ft 471 kts 144°
2026-05-05 19:13 2.50793 101.86685 38832 ft 470 kts 131°
2026-05-05 19:13 2.46847 101.91898 38830 ft 470 kts 125°
2026-05-05 19:14 2.43021 101.97216 38830 ft 470 kts 126°
2026-05-05 19:14 2.39147 102.02432 38832 ft 470 kts 127°
2026-05-05 19:15 2.35208 102.07645 38833 ft 470 kts 127°
2026-05-05 19:15 2.31254 102.12862 38840 ft 470 kts 127°
2026-05-05 19:16 2.27298 102.18087 38837 ft 471 kts 127°
2026-05-05 19:16 2.23348 102.23311 38835 ft 471 kts 127°
2026-05-05 19:17 2.19395 102.28542 38838 ft 471 kts 127°
2026-05-05 19:17 2.15445 102.33773 38839 ft 472 kts 127°
2026-05-05 19:18 2.11511 102.38982 38841 ft 472 kts 127°
2026-05-05 19:18 2.07557 102.44222 38843 ft 472 kts 127°
2026-05-05 19:19 2.03598 102.49468 38842 ft 472 kts 127°
2026-05-05 19:19 1.99639 102.54715 38848 ft 472 kts 127°
2026-05-05 19:20 1.95684 102.59962 38847 ft 472 kts 127°
2026-05-05 19:20 1.91725 102.65214 38846 ft 473 kts 127°
2026-05-05 19:21 1.87794 102.70428 38848 ft 472 kts 127°
2026-05-05 19:21 1.83830 102.75688 38846 ft 473 kts 127°
2026-05-05 19:22 1.79877 102.80933 38843 ft 472 kts 127°
2026-05-05 19:22 1.75919 102.86184 38845 ft 472 kts 127°
2026-05-05 19:23 1.72799 102.90668 38844 ft 472 kts 121°
2026-05-05 19:23 1.69658 102.96426 38844 ft 472 kts 117°
2026-05-05 19:24 1.66624 103.02243 38845 ft 472 kts 117°
2026-05-05 19:24 1.63487 103.08011 38839 ft 472 kts 122°
2026-05-05 19:25 1.59376 103.13122 38836 ft 472 kts 136°
2026-05-05 19:25 1.54135 103.17074 38826 ft 473 kts 148°
2026-05-05 19:26 1.48572 103.20531 38833 ft 474 kts 148°
2026-05-05 19:26 1.43007 103.24087 38830 ft 475 kts 147°
2026-05-05 19:27 1.37475 103.27711 38835 ft 476 kts 146°
2026-05-05 19:27 1.31936 103.31366 38841 ft 477 kts 146°
2026-05-05 19:28 1.26387 103.35025 38839 ft 478 kts 146°
2026-05-05 19:28 1.20875 103.38677 38842 ft 478 kts 146°
2026-05-05 19:29 1.15338 103.42365 38848 ft 478 kts 146°
2026-05-05 19:29 1.09803 103.46051 38843 ft 478 kts 146°
2026-05-05 19:30 1.04355 103.49862 38843 ft 477 kts 141°
2026-05-05 19:30 0.99521 103.54405 38842 ft 477 kts 133°
2026-05-05 19:31 0.95011 103.59207 38837 ft 477 kts 133°
2026-05-05 19:31 0.90439 103.64015 38837 ft 476 kts 133°
2026-05-05 19:32 0.85841 103.68786 38839 ft 476 kts 134°
2026-05-05 19:32 0.81225 103.73554 38841 ft 477 kts 134°
2026-05-05 19:33 0.76610 103.78319 38831 ft 477 kts 134°
2026-05-05 19:33 0.72004 103.83075 38839 ft 477 kts 134°
2026-05-05 19:34 0.67443 103.87784 38845 ft 477 kts 134°
2026-05-05 19:35 0.60496 103.94954 38839 ft 476 kts 133°
2026-05-05 19:35 0.55888 103.99709 38844 ft 476 kts 133°
2026-05-05 19:36 0.51281 104.04464 38839 ft 476 kts 133°
2026-05-05 19:36 0.46673 104.09220 38840 ft 475 kts 133°
2026-05-05 19:37 0.42071 104.13971 38836 ft 475 kts 133°
2026-05-05 19:37 0.37442 104.18691 38833 ft 475 kts 136°
2026-05-05 19:38 0.32311 104.22765 38841 ft 475 kts 147°
2026-05-05 19:38 0.26439 104.25773 38843 ft 474 kts 158°
2026-05-05 19:39 0.20318 104.28249 38832 ft 474 kts 158°
2026-05-05 19:39 0.14232 104.30779 38833 ft 474 kts 157°
2026-05-05 19:40 0.08159 104.33370 38841 ft 474 kts 156°
2026-05-05 19:40 0.02104 104.35975 38838 ft 474 kts 156°
2026-05-05 19:41 -0.03952 104.38580 38829 ft 473 kts 156°
2026-05-05 19:41 -0.09971 104.41166 38834 ft 473 kts 156°
2026-05-05 19:42 -0.16024 104.43764 38831 ft 474 kts 156°
2026-05-05 19:42 -0.22079 104.46364 38837 ft 474 kts 156°
2026-05-05 19:43 -0.28137 104.48964 38836 ft 474 kts 156°
2026-05-05 19:43 -0.34196 104.51564 38834 ft 473 kts 156°
2026-05-05 19:44 -0.40218 104.54147 38839 ft 473 kts 156°
2026-05-05 19:44 -0.46267 104.56741 38833 ft 473 kts 156°
2026-05-05 19:45 -0.52347 104.59300 38833 ft 473 kts 158°
2026-05-05 19:45 -0.58458 104.61720 38833 ft 473 kts 159°
2026-05-05 19:46 -0.64583 104.64131 38832 ft 473 kts 158°
2026-05-05 19:46 -0.70706 104.66557 38832 ft 473 kts 158°
2026-05-05 19:47 -0.76822 104.68991 38833 ft 473 kts 158°
2026-05-05 19:47 -0.82924 104.71419 38834 ft 472 kts 158°
2026-05-05 19:48 -0.89034 104.73852 38833 ft 472 kts 158°
2026-05-05 19:48 -0.95102 104.76268 38832 ft 472 kts 158°
2026-05-05 19:49 -1.01209 104.78699 38832 ft 472 kts 158°
2026-05-05 19:49 -1.07315 104.81130 38829 ft 472 kts 158°
2026-05-05 19:50 -1.13419 104.83559 38830 ft 472 kts 158°
2026-05-05 19:50 -1.19524 104.85989 38831 ft 472 kts 158°
2026-05-05 19:51 -1.25379 104.88320 38836 ft 472 kts 158°
2026-05-05 19:51 -1.31473 104.90747 38832 ft 472 kts 158°
2026-05-05 19:52 -1.37542 104.93164 38831 ft 472 kts 158°
2026-05-05 19:52 -1.43649 104.95596 38827 ft 473 kts 158°
2026-05-05 19:53 -1.49710 104.98009 38832 ft 473 kts 158°
2026-05-05 19:53 -1.55834 105.00448 38831 ft 474 kts 158°
2026-05-05 19:54 -1.61978 105.02895 38832 ft 475 kts 158°
2026-05-05 19:54 -1.68116 105.05340 38834 ft 475 kts 158°
2026-05-05 19:55 -1.74268 105.07792 38838 ft 476 kts 158°
2026-05-05 19:55 -1.80382 105.10229 38842 ft 476 kts 158°
2026-05-05 19:56 -1.86548 105.12688 38840 ft 476 kts 158°
2026-05-05 19:56 -1.92711 105.15144 38847 ft 476 kts 158°
2026-05-05 19:57 -1.98868 105.17598 38846 ft 476 kts 158°
2026-05-05 19:57 -2.04999 105.20042 38845 ft 476 kts 158°
2026-05-05 19:58 -2.11156 105.22497 38849 ft 476 kts 158°
2026-05-05 19:58 -2.17312 105.24951 38844 ft 476 kts 158°
2026-05-05 19:59 -2.23479 105.27409 38842 ft 477 kts 158°
2026-05-05 19:59 -2.29641 105.29866 38845 ft 477 kts 158°
2026-05-05 20:00 -2.35789 105.32317 38839 ft 477 kts 158°
2026-05-05 20:00 -2.41963 105.34778 38843 ft 478 kts 158°
2026-05-05 20:01 -2.48142 105.37242 38851 ft 478 kts 158°
2026-05-05 20:01 -2.54320 105.39715 38849 ft 478 kts 158°
2026-05-05 20:02 -2.60455 105.42294 38850 ft 477 kts 156°
2026-05-05 20:02 -2.66520 105.44885 38851 ft 477 kts 156°
2026-05-05 20:03 -2.72609 105.47476 38857 ft 474 kts 157°
2026-05-05 20:03 -2.78684 105.50053 38852 ft 474 kts 157°
2026-05-05 20:04 -2.84759 105.52625 38855 ft 473 kts 157°
2026-05-05 20:04 -2.90836 105.55197 38850 ft 474 kts 157°
2026-05-05 20:05 -2.96912 105.57767 38855 ft 474 kts 157°
2026-05-05 20:05 -3.02955 105.60320 38854 ft 475 kts 157°
2026-05-05 20:06 -3.09037 105.62895 38857 ft 475 kts 157°
2026-05-05 20:06 -3.15127 105.65477 38858 ft 475 kts 157°
2026-05-05 20:07 -3.21223 105.68061 38856 ft 475 kts 157°
2026-05-05 20:07 -3.27308 105.70640 38856 ft 474 kts 156°
2026-05-05 20:08 -3.33386 105.73216 38856 ft 474 kts 156°
2026-05-05 20:08 -3.39422 105.75774 38854 ft 474 kts 156°
2026-05-05 20:09 -3.45517 105.78356 38844 ft 475 kts 156°
2026-05-05 20:09 -3.51608 105.80936 38846 ft 475 kts 156°
2026-05-05 20:10 -3.57704 105.83519 38844 ft 476 kts 156°
2026-05-05 20:10 -3.63808 105.86107 38844 ft 476 kts 156°
2026-05-05 20:11 -3.69875 105.88678 38839 ft 477 kts 156°
2026-05-05 20:11 -3.75995 105.91274 38835 ft 477 kts 156°
2026-05-05 20:12 -3.81087 105.93434 38835 ft 478 kts 156°
2026-05-05 20:12 -3.88210 105.96457 38839 ft 478 kts 156°
2026-05-05 20:13 -3.93316 105.98625 38841 ft 478 kts 156°
2026-05-05 20:13 -3.99145 106.01783 38840 ft 477 kts 141°
2026-05-05 20:14 -4.03642 106.06645 38837 ft 477 kts 122°
2026-05-05 20:14 -4.06426 106.12638 38832 ft 476 kts 104°
2026-05-05 20:15 -4.07871 106.19105 38833 ft 476 kts 102°
2026-05-05 20:15 -4.09349 106.25543 38842 ft 476 kts 103°
2026-05-05 20:16 -4.10927 106.31983 38843 ft 476 kts 103°
2026-05-05 20:16 -4.12516 106.38420 38844 ft 475 kts 103°
2026-05-05 20:17 -4.14090 106.44847 38842 ft 475 kts 103°
2026-05-05 20:17 -4.15649 106.51237 38842 ft 474 kts 103°
2026-05-05 20:18 -4.17213 106.57660 38839 ft 474 kts 103°
2026-05-05 20:18 -4.18771 106.64079 38837 ft 474 kts 103°
2026-05-05 20:19 -4.20329 106.70500 38832 ft 474 kts 103°
2026-05-05 20:19 -4.21874 106.76867 38837 ft 473 kts 103°
2026-05-05 20:20 -4.23438 106.83320 38834 ft 474 kts 103°
2026-05-05 20:20 -4.24983 106.89692 38832 ft 473 kts 103°
2026-05-05 20:21 -4.26537 106.96105 38835 ft 474 kts 103°
2026-05-05 20:21 -4.28090 107.02524 38836 ft 474 kts 103°
2026-05-05 20:22 -4.29643 107.08950 38833 ft 474 kts 104°
2026-05-05 20:22 -4.31198 107.15381 38832 ft 475 kts 104°
2026-05-05 20:23 -4.32757 107.21823 38826 ft 475 kts 104°
2026-05-05 20:23 -4.34304 107.28223 38830 ft 476 kts 104°
2026-05-05 20:24 -4.35862 107.34672 38831 ft 476 kts 104°
2026-05-05 20:24 -4.37419 107.41121 38836 ft 476 kts 104°
2026-05-05 20:25 -4.38978 107.47579 38839 ft 476 kts 104°
2026-05-05 20:25 -4.40539 107.54046 38837 ft 476 kts 104°
2026-05-05 20:26 -4.42087 107.60465 38840 ft 477 kts 104°
2026-05-05 20:26 -4.43647 107.66929 38835 ft 477 kts 104°
2026-05-05 20:27 -4.45215 107.73387 38837 ft 477 kts 104°
2026-05-05 20:27 -4.46788 107.79844 38838 ft 476 kts 104°
2026-05-05 20:28 -4.48359 107.86298 38839 ft 476 kts 104°
2026-05-05 20:28 -4.49916 107.92711 38833 ft 476 kts 104°
2026-05-05 20:29 -4.51478 107.99163 38830 ft 476 kts 104°
2026-05-05 20:29 -4.53036 108.05613 38829 ft 476 kts 104°
2026-05-05 20:30 -4.54594 108.12066 38831 ft 476 kts 104°
2026-05-05 20:30 -4.56151 108.18527 38831 ft 476 kts 104°
2026-05-05 20:31 -4.57693 108.24938 38839 ft 476 kts 104°
2026-05-05 20:31 -4.59246 108.31402 38835 ft 476 kts 104°
2026-05-05 20:32 -4.60799 108.37865 38840 ft 477 kts 104°
2026-05-05 20:32 -4.62351 108.44326 38832 ft 477 kts 104°
2026-05-05 20:33 -4.63902 108.50795 38832 ft 477 kts 104°
2026-05-05 20:33 -4.65984 108.57103 38836 ft 479 kts 119°
2026-05-05 20:34 -4.69983 108.62423 38840 ft 480 kts 137°
2026-05-05 20:34 -4.75422 108.66289 38837 ft 482 kts 155°
2026-05-05 20:35 -4.81801 108.68282 38832 ft 482 kts 173°
2026-05-05 20:35 -4.88457 108.68170 38842 ft 483 kts 192°
2026-05-05 20:36 -4.94768 108.65963 38847 ft 481 kts 210°
2026-05-05 20:36 -5.00359 108.62277 38843 ft 481 kts 216°
2026-05-05 20:37 -5.05933 108.58535 38843 ft 482 kts 214°
2026-05-05 20:37 -5.11524 108.54898 38840 ft 482 kts 213°
2026-05-05 20:38 -5.17168 108.51253 38847 ft 482 kts 213°
2026-05-05 20:38 -5.22810 108.47594 38844 ft 483 kts 213°
2026-05-05 20:39 -5.28439 108.43931 38845 ft 482 kts 213°
2026-05-05 20:39 -5.34064 108.40263 38840 ft 482 kts 213°
2026-05-05 20:39 -5.36872 108.38430 38680 ft 480 kts 213°
2026-05-05 20:40 -5.39672 108.36600 38061 ft 481 kts 213°
2026-05-05 20:40 -5.42488 108.34758 37139 ft 485 kts 213°
2026-05-05 20:40 -5.45334 108.32894 36041 ft 491 kts 213°
2026-05-05 20:40 -5.48219 108.30999 34815 ft 498 kts 213°
2026-05-05 20:41 -5.51119 108.29092 34004 ft 496 kts 213°
2026-05-05 20:41 -5.53994 108.27201 33314 ft 491 kts 213°
2026-05-05 20:41 -5.56805 108.25349 32681 ft 488 kts 213°
2026-05-05 20:41 -5.59652 108.23427 32050 ft 485 kts 213°
2026-05-05 20:42 -5.62402 108.21539 31481 ft 481 kts 213°
2026-05-05 20:42 -5.65132 108.19655 31273 ft 470 kts 213°
2026-05-05 20:42 -5.67791 108.17823 31116 ft 457 kts 213°
2026-05-05 20:42 -5.70398 108.16031 30698 ft 452 kts 213°
2026-05-05 20:43 -5.72987 108.14255 30173 ft 450 kts 213°
2026-05-05 20:43 -5.75568 108.12487 29666 ft 447 kts 213°
2026-05-05 20:43 -5.78132 108.10732 29158 ft 443 kts 213°
2026-05-05 20:43 -5.80676 108.08992 28638 ft 440 kts 213°
2026-05-05 20:44 -5.83191 108.07271 28127 ft 436 kts 213°
2026-05-05 20:44 -5.85690 108.05560 27609 ft 433 kts 213°
2026-05-05 20:44 -5.88138 108.03884 27103 ft 429 kts 213°
2026-05-05 20:44 -5.90595 108.02201 26609 ft 426 kts 213°
2026-05-05 20:45 -5.94995 107.98337 25594 ft 420 kts 233°
2026-05-05 20:45 -5.96425 107.95800 25097 ft 416 kts 248°
2026-05-05 20:45 -5.97180 107.93010 24594 ft 413 kts 263°
2026-05-05 20:46 -5.97184 107.90163 24323 ft 402 kts 277°
2026-05-05 20:46 -5.96764 107.87437 24200 ft 387 kts 281°
2026-05-05 20:46 -5.96359 107.84807 24086 ft 374 kts 278°
2026-05-05 20:46 -5.96115 107.82251 23974 ft 362 kts 274°
2026-05-05 20:47 -5.96008 107.79753 23656 ft 357 kts 271°
2026-05-05 20:47 -5.95983 107.77263 23226 ft 355 kts 270°
2026-05-05 20:47 -5.95994 107.74791 22788 ft 353 kts 270°
2026-05-05 20:47 -5.96014 107.72335 22343 ft 350 kts 269°
2026-05-05 20:48 -5.96032 107.69899 21911 ft 348 kts 270°
2026-05-05 20:48 -5.96045 107.67473 21475 ft 345 kts 270°
2026-05-05 20:48 -5.96053 107.65103 21044 ft 343 kts 270°
2026-05-05 20:48 -5.96058 107.62719 20627 ft 341 kts 270°
2026-05-05 20:49 -5.96062 107.60347 20208 ft 338 kts 270°
2026-05-05 20:49 -5.96064 107.57993 19800 ft 336 kts 270°
2026-05-05 20:49 -5.96067 107.55655 19394 ft 333 kts 270°
2026-05-05 20:49 -5.96069 107.53330 18981 ft 331 kts 270°
2026-05-05 20:50 -5.96071 107.51026 18571 ft 329 kts 270°
2026-05-05 20:50 -5.96072 107.49511 18300 ft 328 kts 270°
2026-05-05 20:50 -5.96073 107.46460 17711 ft 325 kts 270°
2026-05-05 20:50 -5.96074 107.44202 17241 ft 322 kts 269°
2026-05-05 20:51 -5.96074 107.41960 16789 ft 320 kts 269°
2026-05-05 20:51 -5.96074 107.39725 16329 ft 318 kts 269°
2026-05-05 20:51 -5.96074 107.37544 15875 ft 315 kts 269°
2026-05-05 20:51 -5.96074 107.35350 15433 ft 313 kts 269°
2026-05-05 20:52 -5.96074 107.33178 15149 ft 304 kts 269°
2026-05-05 20:52 -5.96076 107.31064 15059 ft 305 kts 269°
2026-05-05 20:52 -5.96077 107.28925 14969 ft 306 kts 269°
2026-05-05 20:52 -5.96075 107.26785 14868 ft 305 kts 269°
2026-05-05 20:53 -5.96073 107.24661 14845 ft 304 kts 269°
2026-05-05 20:53 -5.96070 107.22534 14842 ft 305 kts 269°
2026-05-05 20:53 -5.96068 107.20401 14842 ft 305 kts 269°
2026-05-05 20:53 -5.96065 107.18269 14735 ft 304 kts 269°
2026-05-05 20:54 -5.96063 107.16133 14347 ft 307 kts 269°
2026-05-05 20:54 -5.96064 107.13993 13916 ft 306 kts 269°
2026-05-05 20:54 -5.96068 107.11881 13437 ft 304 kts 268°
2026-05-05 20:54 -5.96281 107.09780 12928 ft 302 kts 256°
2026-05-05 20:55 -5.96928 107.07798 12434 ft 298 kts 245°
2026-05-05 20:55 -5.97763 107.05906 11910 ft 296 kts 244°
2026-05-05 20:55 -5.98596 107.04020 11423 ft 294 kts 245°
2026-05-05 20:55 -5.99391 107.02138 10923 ft 292 kts 246°
2026-05-05 20:56 -6.00153 107.00249 10446 ft 290 kts 247°
2026-05-05 20:56 -6.00887 106.98368 9961 ft 288 kts 248°
2026-05-05 20:56 -6.01607 106.96493 9452 ft 287 kts 248°
2026-05-05 20:56 -6.02316 106.94632 8938 ft 284 kts 248°
2026-05-05 20:57 -6.03019 106.92784 8420 ft 282 kts 248°
2026-05-05 20:57 -6.03725 106.90954 7906 ft 280 kts 247°
2026-05-05 20:57 -6.04435 106.89143 7396 ft 278 kts 247°
2026-05-05 20:57 -6.05153 106.87347 6870 ft 276 kts 247°
2026-05-05 20:58 -6.05857 106.85568 6386 ft 273 kts 247°
2026-05-05 20:58 -6.06557 106.83800 5859 ft 271 kts 247°
2026-05-05 20:58 -6.07250 106.82050 5350 ft 269 kts 247°
2026-05-05 20:58 -6.07931 106.80331 4924 ft 264 kts 247°
2026-05-05 20:59 -6.08598 106.78643 4693 ft 251 kts 247°
2026-05-05 20:59 -6.09228 106.77055 4190 ft 245 kts 247°
2026-05-05 20:59 -6.09855 106.75474 3809 ft 234 kts 247°
2026-05-05 20:59 -6.10409 106.74071 3651 ft 202 kts 246°
2026-05-05 21:00 -6.10915 106.72796 3205 ft 193 kts 246°
2026-05-05 21:00 -6.11412 106.71544 2625 ft 194 kts 247°
2026-05-05 21:00 -6.11912 106.70280 2008 ft 195 kts 247°
2026-05-05 21:00 -6.12413 106.69018 1425 ft 193 kts 247°
2026-05-05 21:01 -6.12878 106.67841 1307 ft 170 kts 246°
2026-05-05 21:01 -6.13313 106.66744 1560 ft 166 kts 247°
2026-05-05 21:01 -6.13755 106.65637 2074 ft 179 kts 247°
2026-05-05 21:01 -6.13996 106.64818 2446 ft 191 kts 258°
2026-05-05 21:02 -6.14292 106.63435 2681 ft 208 kts 251°
2026-05-05 21:02 -6.14813 106.62089 2786 ft 206 kts 244°
2026-05-05 21:02 -6.15628 106.60344 2914 ft 218 kts 242°
2026-05-05 21:02 -6.16282 106.58937 2957 ft 224 kts 243°
2026-05-05 21:03 -6.16710 106.57975 2975 ft 223 kts 244°
2026-05-05 21:03 -6.17316 106.56562 2976 ft 222 kts 245°
2026-05-05 21:03 -6.17913 106.55125 2987 ft 222 kts 245°
2026-05-05 21:03 -6.18497 106.53688 2977 ft 222 kts 246°
2026-05-05 21:04 -6.19088 106.52254 2965 ft 222 kts 243°
2026-05-05 21:04 -6.20065 106.51092 2982 ft 219 kts 211°
2026-05-05 21:04 -6.21480 106.50644 2974 ft 214 kts 176°
2026-05-05 21:04 -6.22893 106.51018 2989 ft 210 kts 150°
2026-05-05 21:05 -6.24145 106.51769 2987 ft 209 kts 144°
2026-05-05 21:05 -6.25378 106.52547 2984 ft 210 kts 147°
2026-05-05 21:05 -6.26668 106.53246 2965 ft 211 kts 152°
2026-05-05 21:05 -6.27932 106.53969 2967 ft 208 kts 136°
2026-05-05 21:06 -6.28726 106.55169 2992 ft 208 kts 106°
2026-05-05 21:06 -6.28752 106.56600 3001 ft 208 kts 77°
2026-05-05 21:06 -6.28266 106.57973 2987 ft 208 kts 67°
2026-05-05 21:06 -6.27698 106.59318 2982 ft 216 kts 68°
2026-05-05 21:07 -6.27108 106.60792 2991 ft 233 kts 70°
2026-05-05 21:07 -6.26540 106.62306 2973 ft 234 kts 71°
2026-05-05 21:07 -6.25983 106.63867 2977 ft 234 kts 72°
2026-05-05 21:07 -6.25456 106.65395 2985 ft 235 kts 72°
2026-05-05 21:08 -6.24926 106.66947 2978 ft 234 kts 72°
2026-05-05 21:08 -6.24396 106.68502 2981 ft 235 kts 72°
2026-05-05 21:08 -6.23867 106.70049 2972 ft 234 kts 72°
2026-05-05 21:08 -6.23335 106.71597 2973 ft 234 kts 72°
2026-05-05 21:09 -6.22801 106.73143 2973 ft 234 kts 72°
2026-05-05 21:09 -6.22270 106.74670 2971 ft 233 kts 72°
2026-05-05 21:09 -6.21733 106.76211 2982 ft 233 kts 72°
2026-05-05 21:09 -6.21193 106.77752 2976 ft 234 kts 72°
2026-05-05 21:10 -6.20653 106.79293 2984 ft 234 kts 72°
2026-05-05 21:10 -6.20112 106.80832 2980 ft 234 kts 72°
2026-05-05 21:10 -6.19486 106.82331 2963 ft 229 kts 59°
2026-05-05 21:10 -6.18398 106.83391 2931 ft 213 kts 32°
2026-05-05 21:11 -6.17076 106.83990 2771 ft 206 kts 23°
2026-05-05 21:11 -6.15732 106.84473 2614 ft 205 kts 22°
2026-05-05 21:11 -6.14373 106.84969 2511 ft 206 kts 24°
2026-05-05 21:11 -6.13071 106.85486 2434 ft 196 kts 26°
2026-05-05 21:12 -6.11849 106.86012 2378 ft 184 kts 27°
2026-05-05 21:12 -6.10718 106.86526 2245 ft 180 kts 28°
2026-05-05 21:12 -6.09563 106.87074 2217 ft 184 kts 29°
2026-05-05 21:12 -6.08399 106.87628 2198 ft 183 kts 29°
2026-05-05 21:13 -6.07181 106.88031 2183 ft 186 kts
2026-05-05 21:13 -6.05938 106.87732 2184 ft 194 kts 328°
2026-05-05 21:13 -6.05150 106.86650 2194 ft 197 kts 284°
2026-05-05 21:13 -6.05288 106.85318 2205 ft 195 kts 239°
2026-05-05 21:14 -6.06084 106.84229 2232 ft 195 kts 228°
2026-05-05 21:14 -6.06836 106.83111 2045 ft 192 kts 239°
2026-05-05 21:14 -6.07395 106.81889 1981 ft 195 kts 249°
2026-05-05 21:14 -6.07834 106.80607 1981 ft 193 kts 249°
2026-05-05 21:15 -6.08324 106.79346 1972 ft 194 kts 246°
2026-05-05 21:15 -6.08829 106.78079 1976 ft 194 kts 247°
2026-05-05 21:15 -6.09324 106.76821 1944 ft 195 kts 247°
2026-05-05 21:15 -6.09823 106.75565 1699 ft 196 kts 247°
2026-05-05 21:16 -6.10319 106.74312 1418 ft 188 kts 247°
2026-05-05 21:16 -6.10785 106.73135 1215 ft 174 kts 247°
2026-05-05 21:16 -6.11209 106.72057 974 ft 158 kts 247°
2026-05-05 21:16 -6.11604 106.71066 800 ft 154 kts 247°
2026-05-05 21:17 -6.12003 106.70057 615 ft 151 kts 247°
2026-05-05 21:17 -6.12372 106.69094 383 ft 150 kts 248°
2026-05-05 21:17 -6.12746 106.68111 206 ft 147 kts 247°
2026-05-05 21:17 -6.13122 106.67141 80 ft 150 kts 248°
2026-05-05 21:18 -6.13479 106.66241 45 ft 115 kts 248°
2026-05-05 21:18 -6.13709 106.65688 44 ft 48 kts 246°
2026-05-05 21:18 -6.13742 106.65507 45 ft 21 kts 267°
2026-05-05 21:18 -6.13734 106.65371 47 ft 3 kts 286°
2026-05-05 21:19 -6.13734 106.65370 47 ft 1 kts 286°
2026-05-05 21:20 -6.13721 106.65355 46 ft 4 kts 309°
2026-05-05 21:20 -6.13699 106.65325 47 ft 6 kts 303°
2026-05-05 21:20 -6.13694 106.65278 47 ft 8 kts 269°
2026-05-05 21:20 -6.13713 106.65227 47 ft 8 kts 248°
2026-05-05 21:21 -6.13737 106.65167 47 ft 10 kts 248°
2026-05-05 21:21 -6.13763 106.65095 47 ft 11 kts 255°
2026-05-05 21:21 -6.13724 106.65042 47 ft 10 kts 317°
2026-05-05 21:21 -6.13662 106.65018 47 ft 10 kts 338°
2026-05-05 21:22 -6.13589 106.64989 47 ft 12 kts 338°
2026-05-05 21:22 -6.13504 106.64955 47 ft 14 kts 338°
2026-05-05 21:22 -6.13405 106.64915 44 ft 16 kts 338°
2026-05-05 21:22 -6.13298 106.64871 46 ft 18 kts 338°
2026-05-05 21:23 -6.13179 106.64823 46 ft 19 kts 338°
2026-05-05 21:23 -6.13051 106.64771 45 ft 21 kts 338°
2026-05-05 21:23 -6.12913 106.64716 42 ft 22 kts 338°
2026-05-05 21:23 -6.12768 106.64658 42 ft 23 kts 338°
2026-05-05 21:24 -6.12617 106.64597 44 ft 24 kts 338°
2026-05-05 21:24 -6.12460 106.64534 43 ft 25 kts 338°
2026-05-05 21:24 -6.12298 106.64468 43 ft 25 kts 338°
2026-05-05 21:24 -6.12160 106.64451 43 ft 4 kts 44°
2026-05-05 21:25 -6.12145 106.64483 43 ft 6 kts 61°
2026-05-05 21:25 -6.12120 106.64529 43 ft 9 kts 61°
2026-05-05 21:25 -6.12103 106.64591 42 ft 10 kts 77°
2026-05-05 21:25 -6.12086 106.64665 41 ft 12 kts 77°
2026-05-05 21:26 -6.12115 106.64710 42 ft 6 kts 164°
2026-05-05 21:26 -6.12165 106.64724 42 ft 8 kts 164°
2026-05-05 21:26 -6.12200 106.64759 42 ft 7 kts 98°
2026-05-05 21:26 -6.12225 106.64797 42 ft 7 kts 135°
2026-05-05 21:27 -6.12261 106.64835 42 ft 8 kts 132°
2026-05-05 21:27 -6.12281 106.64855 42 ft 0 kts 136°